Location: Township of Marena
(38.1747°N, 99.6798°W)
Time: 02:25:59
(UTC+00:00)

Cosmos 1302 Rocket - Pass Details

Date: 26 October 2020
Orbit: 756 x 777 km, 74.0° (Epoch: 24 November)

Event Time Altitude Azimuth Distance (km) Brightness Sun altitude
Exits shadow 10:53:38 14° 347° (NNW) 2,090 6.1 -25.2°
Maximum altitude 10:58:17 72° 71° (ENE) 817 4.2 -24.3°
Drops below altitude 10° 11:03:32 10° 155° (SSE) 2,310 6.7 -23.3°
Sets 11:05:54 0° 158° (SSE) 3,230 7.5 -22.8°
